Погода в Сосновке

Россия / Чувашская Республика     56°11′20″N   47°13′11″E
темп.,
°C
ветер,
м/с
пор.,
м/с
влажн.,
%
обл.,
%
осадки,
мм/ч
давл.,
гПа
погр.,
м
11 апреля, вс
вс1100:00+1с23100100 0.1 102698
03:00+1ссз269999 0.1 1027200
06:00+1ссз2599100 0.0 1028265
09:00+4ссз248570 0.0 1029371
12:00+7с2274100 0.0 1030557
15:00+8с1373100 0.0 1032506
18:00+4вюв1196100 0.0 103210
21:000в1197100 0.0 103410
12 апреля, пн
пн1200:000св1197100 0.0 103510
03:000св2496100 0.0 103667
06:000всв2697100 0.0 1038140
09:00+6всв3683100 0.0 1038333
12:00+10в4670100 0.0 1038705
15:00+11в4770100 0.0 1037745
18:00+7в4990100 0.0 1037419
21:00+6в31195100 0.0 1037408
13 апреля, вт
вт1300:00+5вюв31191100 0.0 1036298
03:00+4вюв2895100 0.0 1036171
06:00+5юв2895100 0.0 1035177
09:00+11ююв367990 0.0 1034338
12:00+15ююв466894 0.0 1033590
15:00+17ю466070 0.0 10311007
18:00+14ююв387796 0.0 1030174
21:00+10ю398711 0.0 1031157
14 апреля, ср
ср1400:00+8ю388169 0.0 1030135
03:00+7ю237572 0.0 103045
06:00+7ю227394 0.0 102931
09:00+13ю2454100 0.0 1029321
12:00+17ю344228 0.0 1027919
15:00+18ю453522 0.0 10261167
18:00+14ююв374955 0.0 1025133
21:00+9ю366385 0.0 1025104
15 апреля, чт
чт1500:00+8ю2372100 0.0 102439
03:00+7ю2279100 0.0 102323
06:00+7ю228049 0.0 102227
09:00+14ю245473 0.0 1021435
12:00+17ююз344082 0.0 10201326
15:00+18юз233637 0.0 10181664
18:00+15з22515 0.0 101717
21:00+11зюз11620 0.0 101710